DECAYED

STARLINK-30189, 57430 (Decayed)

Orbit data source: Space-Track

STARLINK-30189, 57430 was a payload satellite owned by SpaceX/Seattle (US) in LEO that was launched on Mon, 24 Jul 2023 UTC via an FALCON 9 launch vehicle from the Air Force Eastern Test Range (AFETR). Payload-class satellites include a variety of spacecraft equipped with specific instruments for various scientific and technological missions. These include communications satellites like Starlink; space stations such as the ISS; scientific satellites like the Hubble; Earth observation satellites from companies like Planet Labs, Umbra, and HawkEye 360; GPS; miniature CubeSats for education and research; and military/defense satellites.

Not visible in the next 10 days
Identifier
57430, 2023-105A
Orbit
Decayed
Country
Flag of USUS
Related business
Manufacturer
SpaceX/Seattle
Mission
Decayed Commercial Communications
Bus & Motor
STARLINK V2M, Unknown motor
Mass
730 kg wet, ~700 kg dry
Launch date (UTC)
2023-07-24 (3 years ago)
Launch vehicle
FALCON 9
Launch site
Air Force Eastern Test Range (AFETR)
Object type
Payload
Rocket body
Debris
Shape & HBR
Box + 2 Pan, 17.7 m
Radar Cross Section
33.884 m², Large (>1 m²)

Expand to show TLE details & history
Last TLE update: 2 months ago

TLE from 2 months ago
0 STARLINK-30189
1 57430U 23105A   26118.87619734  .04438707  39168-1  43894-2 0  9994
2 57430  42.9920 292.4833 0006872 298.9102  61.1092 16.13971091153727
Epoch: 2026-04-28T21:01Z
TLE epoch observation values (Epoch: 2026-04-28T21:01:43.450Z)
Latitude
0.00002°
Longitude
120.20706°
Altitude
233.545 km
Speed
7.77 km/s
True Right ascension
19h 29m 55s
True Declination
0° 00' 00"
Sunlit
Object was in daylight at epoch
Visualization orbit readout
Latitude
Unknown
Longitude
Unknown
Altitude
Unknown
Speed
Unknown
Apparent Right ascension
Unknown
Apparent Declination
Unknown
Sunlit
N/A
Visualization observer readout
Local Sidereal Time
21:30:30
Azimuth
Unknown
Elevation
Unknown
Doppler factor
Unknown
Orbital elements
Apogee altitude
242.537 km
Perigee altitude
233.444 km
Semi-major axis
6,616.128 km
Eccentricity
0.00069
Inclination
42.992°
RAAN
292.4833°
Arg. of periapsis
298.9102°
True anomaly
61.17818°
Mean anomaly
61.1092°
Eccentric anomaly
61.14368°
Mean motion
4.03308 °/min
Orbital period
89.26 mins
BSTAR
0.0043894
Loading maneuver chart data...
Computing Atmospheric mass density...
Loading historical data...
Loading historical data...
Loading historical data...
Loading historical data...
Loading historical data...
Loading historical data...
Loading historical data...

Documentation

Showing up to 5 results
|